TimeCDT,TemperatureF,Dew PointF,Humidity,Sea Level PressureIn,VisibilityMPH,Wind Direction,Wind SpeedMPH,Gust SpeedMPH,PrecipitationIn,Events,Conditions,WindDirDegrees,DateUTC
12:53 AM,66.0,62.1,87,29.92,10.0,SW,5.8,-,N/A,,Clear,230,2013-06-24 05:53:00
1:53 AM,64.9,62.1,90,29.91,10.0,WSW,6.9,-,N/A,,Clear,240,2013-06-24 06:53:00
2:53 AM,64.9,62.1,90,29.91,10.0,WSW,5.8,-,N/A,,Clear,240,2013-06-24 07:53:00
3:53 AM,63.0,62.1,97,29.91,10.0,WSW,3.5,-,N/A,,Clear,250,2013-06-24 08:53:00
4:53 AM,63.0,62.1,97,29.92,10.0,WSW,4.6,-,N/A,,Partly Cloudy,250,2013-06-24 09:53:00
5:46 AM,62.6,60.8,94,29.94,1.8,Calm,Calm,-,N/A,,Clear,0,2013-06-24 10:46:00
5:53 AM,63.0,61.0,93,29.92,1.5,Calm,Calm,-,N/A,,Clear,0,2013-06-24 10:53:00
6:01 AM,62.6,62.6,100,29.94,2.5,Calm,Calm,-,N/A,,Clear,0,2013-06-24 11:01:00
6:21 AM,64.4,62.6,94,29.95,6.0,Calm,Calm,-,N/A,,Clear,0,2013-06-24 11:21:00
6:53 AM,66.9,64.0,90,29.94,10.0,SW,3.5,-,N/A,,Clear,230,2013-06-24 11:53:00
7:53 AM,69.1,64.0,84,29.95,10.0,West,6.9,-,N/A,,Clear,270,2013-06-24 12:53:00
8:53 AM,73.0,63.0,71,29.96,10.0,West,3.5,-,N/A,,Clear,260,2013-06-24 13:53:00
9:53 AM,75.0,62.1,64,29.95,10.0,South,6.9,-,N/A,,Clear,190,2013-06-24 14:53:00
10:53 AM,75.9,61.0,60,29.96,10.0,Variable,4.6,-,N/A,,Partly Cloudy,0,2013-06-24 15:53:00
11:53 AM,78.1,60.1,54,29.94,10.0,Variable,4.6,-,N/A,,Partly Cloudy,0,2013-06-24 16:53:00
12:53 PM,80.1,62.1,54,29.93,10.0,WSW,8.1,-,N/A,,Clear,240,2013-06-24 17:53:00
1:53 PM,79.0,61.0,54,29.91,10.0,SW,8.1,17.3,N/A,,Mostly Cloudy,220,2013-06-24 18:53:00
2:53 PM,82.0,62.1,51,29.87,10.0,SW,12.7,-,N/A,,Scattered Clouds,230,2013-06-24 19:53:00
3:53 PM,80.1,66.0,62,29.86,10.0,SW,9.2,-,N/A,,Mostly Cloudy,230,2013-06-24 20:53:00
4:53 PM,79.0,66.9,66,29.86,10.0,SSW,11.5,19.6,N/A,,Mostly Cloudy,210,2013-06-24 21:53:00
5:53 PM,78.1,66.0,66,29.86,10.0,SW,10.4,-,N/A,,Partly Cloudy,230,2013-06-24 22:53:00
6:53 PM,77.0,66.0,69,29.86,10.0,SW,9.2,-,N/A,,Clear,230,2013-06-24 23:53:00
7:53 PM,75.0,66.0,73,29.85,10.0,SW,5.8,-,N/A,,Clear,220,2013-06-25 00:53:00
8:53 PM,73.9,66.0,76,29.85,10.0,WSW,4.6,-,N/A,,Overcast,240,2013-06-25 01:53:00
9:53 PM,72.0,64.9,78,29.84,10.0,SW,4.6,-,N/A,,Clear,230,2013-06-25 02:53:00
10:53 PM,69.1,64.9,87,29.86,10.0,West,4.6,-,N/A,,Clear,260,2013-06-25 03:53:00
11:53 PM,69.1,64.9,87,29.86,10.0,Calm,Calm,-,N/A,,Clear,0,2013-06-25 04:53:00